Location: Mercogliano
(40.9167°N, 14.7333°E)
Time: 08:18:46
(UTC+00:00)

CZ-2C R/B - Pass Details

Date: 25 January 2021
Orbit: 785 x 870 km, 98.2° (Epoch: 08 March)

Event Time Altitude Azimuth Distance (km) Brightness Sun altitude
Rises 05:28:58 0° 169° (S) 3,276 6.2 -9.4°
Reaches altitude 10° 05:31:16 10° 171° (S) 2,359 5.4 -9.0°
Maximum altitude 05:36:29 78° 257° (WSW) 829 2.6 -8.1°
Drops below altitude 10° 05:41:51 10° 344° (NNW) 2,425 4.8 -7.1°
Sets 05:44:15 0° 346° (NNW) 3,375 5.5 -6.7°
